Погода в Калининграде

Погода в Калининграде : погода сейчас, прогноз погоды и архив. Всё, что Вы хотите узнать о погоде в Калининграде!

Хотите узнать прогноз погоды в Калининграде? Тогда Вам сюда: Погода в Калининграде

Поиск расширенной информации на нашем сайте:

Другие новости

Новости СМИ2

Главная страница сайта

Новости сайта

03.07.2017

Напоминаем, что на нашем специализированном сайте Метеоцентр.Азия вы можете получить высокодетализированные автоматические прогнозы погоды по пунктам России, СНГ и мира в авиационном формате (включающие направление и скорость ветра, видимость, явления погоды, количество и форму облачности, нижнюю и верхнюю границу облачности).


Погода в Калининграде - сегодня

Время (UTC), дата Ветер
(°,м/с) 
Видим.   Явления Облачность Т
(°С)
Тd
(°С)
f(%) Тe
(°С)
Pmin
(гПа)
dP
(гПа)
Po
(мм)
O2
(г/м3)
Тmin Tmax R s Состояние
почвы
12 17.01.18 150 (ЮВ) 1-3{04}  4000 м  слаб. снег  10/10 300 м 
[Frnb|Ns]
-3.2 -4 94 -3  989.6  0.8  740  302           
15 17.01.18 тихо () -0{03}  1000 м  ливневой снег  10/10 300 м кучево-дожд. 
[Cb cap]
-2.9 -3.3 97 -3  991  1.4  741  302         
18 17.01.18 тихо () -0{01}  4000 м  дымка{ливн. осадки, снег}  9/9 300 м кучево-дожд. 
[Cb cap]
-2.4 -2.6 99 -2  992.3  1.3  742  302    -2.4     
21 17.01.18 250 (З) 2-5{05}  4000 м  дымка{снег}  10/10 300 м 
[Sc]
+0.4 +0.1 98 994  1.7  744  299           
00 18.01.18 250 (З) 2-6{07}  4000 м  в посл. час снег  10/10 300 м 
[Sc]
+0.7 +0.2 96 995.5  1.4  745  299           
03 18.01.18 240 (ЮЗ) 1-4{07}  4000 м  слаб. снег  10/10 300 м 
[Frnb|Ns]
+0.4 +0.1 98 +1  996.6  1.1  745  300  -2.8       
06 18.01.18 230 (ЮЗ) 1-3{06}  4000 м  слаб. снег  10/10 300 м 
[Frnb|Ns]
+0.3 +0.1 99 +1  997.7  1.1  746  300  -2.3    12  равномерный
мокрый или
старый снег
100% 
09 18.01.18 230 (ЮЗ) 2-5{07}  4000 м  дымка{ливн. осадки, снег}  4/4 600 м 
[Cu Sc]
+1 -0.3 91 998.6  0.9  747  300           
12 18.01.18 190 (Ю) 2-6{06}  10 км  {ливн. осадки, снег}  9/9 600 м 
[Cu Sc]
+1.7 -0.7 84 +1  997.3  -1.3  746  299           
15 18.01.18 150 (ЮВ) 2-4{07}  10 км    10/10 600 м 
[Sc]
+1 -1.1 86 995.4  -1.8  745  299         
18 18.01.18 120 (ЮВ) 4-7{07}  4000 м  дымка  10/10 600 м 
[Cu Sc]
+0 -1.4 90 -2  993.6  -1.9  743  300    +1.9  0.3     
21 18.01.18 090 (В) 3-6{07}  4000 м  дымка  9/9 600 м 
[Sc]
-0.3 -2 88 -2  991.7  -1.9  742  299           
00 19.01.18 080 (В) 3-7{08}  4000 м  слаб. снег  10/10 300 м 
[Frnb|Ns]
-0.3 -2.2 87 -2  991.2  -0.5  741  299           
03 19.01.18 050 (СВ) 3-6{07}  4000 м  слаб. снег  10/10 300 м 
[Frnb|Ns]
-1 -1.5 96 -3  992.6  1.4  742  300  -1    0.6     
06 19.01.18 030 (СВ) 2-5{07}  4000 м  слаб. снег  10/10 300 м 
[Frnb|Ns]
-1.4 -1.6 99 -2  995.3  2.7  744  302  -1.4    15  равномерный
мокрый или
старый снег
100% 
09 19.01.18 010 (С) 2-5{07}  4000 м  слаб. снег  10/10 300 м 
[Frnb|Ns]
-1.3 -1.8 96 -2  998.6  3.4  747  303           
12 19.01.18 350 (С) 2-3{06}  4000 м  дымка{снег}  10/10 300 м 
[Sc]
-0.8 -1.6 94 -2  1001.2  2.5  749  303           
15 19.01.18 340 (С) 1-2{03}  4000 м  дымка{снег}  10/10 300 м 
[Sc]
+0 -0.9 94 +1  1003.1  1.9  750  302         
18 19.01.18 тихо () -0{02}  4000 м  дымка{снег}  3/3 600 м 
[Sc]
-2.1 -2.8 95 -2  1004.7  1.6  752  305    +0.1     
21 19.01.18 тихо () -0{03}  4000 м  дымка  ясно 
-7 -7.4 97 -7  1006.8  753  312           
00 20.01.18 тихо () -0{01}  0500 м  переохл. туман  ?/?  
-9.2 -9.7 96 -9  1007.9  1.1  754  315           
03 20.01.18 тихо () -0{02}  1000 м  в посл. час туман  10/10 300 м 
[Sc]
-7.6 -7.9 98 -8  1008.6  0.7  754  313  -9.7         
06 20.01.18 тихо () -0{01}  4000 м  слаб. крупа{ливн. осадки, туман}  10/10 300 м кучево-дожд. 
[Cb cap]
-5.6 -5.8 99 -6  1008.3  -0.3  754  311  -9.7    0.0  15  равномерный
сухой снег
100% 
09 20.01.18 тихо () -0{02}  4000 м  дымка{ливн. осадки}  9/9 600 м 
[Sc]
-3.6 -3.8 99 -4  1009  0.7  755  309           
12 20.01.18 120 (ЮВ) 1-2{03}  4000 м  в посл. час ливневой снег  10/10 600 м 
[Sc]
-2.5 -2.7 99 -2  1008.3  -0.7  754  307           
Время (UTC), дата Ветер
(°,м/с) 
Видим.   Явления Облачность Т
(°С)
Тd
(°С)
f(%) Тe
(°С)
Pmin
(гПа)
dP
(гПа)
Po
(мм)
O2
(г/м3)
Тmin Tmax R s Состояние
почвы

Для получения пояснительной информации подведите курсор к названию столбца.

ПОГОДА в Калининграде - архив

Всё, что Вы хотите узнать о погоде в Калининграде - удобно и подробно!

Выберите нужную дату (начиная с 1 января 2015* года) и нажмите кнопку "Найти".
Будут отображены архивные сводки погоды по пункту Калининград, начиная с указанной даты.


Отображать данные в формате CSV (для использования в таблицах Excel)


Внимание! Наш архив погоды предназначен исключительно для личного некоммерческого использования в познавательных целях. Если Вам необходимы официальные справки о состоянии погоды (для производственных, юридических, коммерческих и т.п. целей), обращайтесь в органы Росгидромета.

*Примечание: данная дата относится к архиву по метеостанциям СССР (Россия, СНГ, Балтия).
Архив по метеостанциям Зарубежной Европы и Азии (кроме Китая) хранится 10 дней, по другим регионам земного шара (Китай, Африка, Америка, Австралия, Океания) - 1 день.

Калининград - район местоположения метеостанции


Название, широта, долгота, высота метеостанции:
Калининград (город) 54.7°ш. 20.6°д. 21 м над ур. моря [Российская Федерация]

Дополнительная информация

В oтличие oт бoльшинства пoгoдных сайтoв мы публикуем пoдрoбную метеoинфoрмацию в детальнoм прoфессиoнальнoм фoрмате.

Характеристики температуры и влажнoсти вoздуха измеряются на высoте 2 м в тени вдали oт зданий и деревьев.
Скoрoсть ветра измеряется на высoте 10 м (на урoвне рoста челoвека скoрoсть ветра ниже в 1.5-2 раза). Если метеoстанция нахoдится в гoрoде или в лесу, тo скoрoсть ветра занижена на 2-4 м/с пo сравнению с oткрытым местoм. Скoрoсть ветра над акватoриями крупных рек и oзёр, а также на вершинах хoлмoв на 2-5 м/с выше, чем в oбычных услoвиях.
Атмoсфернoе давление в разных тoчках местнoсти мoжет значительнo oтличаться oт давления на метеoстанции, в зависимoсти oт услoвий рельефа (при пoдъёме на 10 м давление пoнижается примернo на 1 мм рт.ст.).